Location: *
(40.7873°S, 98.7174°E)
Time: 21:14:13
(UTC+00:00)

Cosmos 1153 Rocket - Pass Details

Date: 11 October 2022
Orbit: 953 x 1007 km, 82.9° (Epoch: 05 December)

Event Time Altitude Azimuth Distance (km) Brightness Sun altitude
Rises 20:23:42 0° 204° (SSW) 3,673 7.7 -24.9°
Reaches altitude 10° 20:26:59 10° 220° (SW) 2,713 6.8 -24.3°
Enters shadow 20:28:54 16° 237° (WSW) 2,316 6.2 -24.0°
